EW8599 Weather Reports


time (UTC)temp
C
wind
direction
speed
KPH
gust
KPH
rain 1hr
cm
rain 24hr
cm
rain mn
cm
humidity
%
barometer
mb
20260507060829 6 288 0.0 4.8 0.00 0.00 0.00 94 1001.4
20260507060614 6 260 0.0 4.8 0.00 0.94 0.00 94 1001.3
20260507060326 6 250 1.6 4.8 0.03 0.00 0.00 94 1001.4
20260507060112 6 250 1.6 4.8 0.03 0.94 0.00 94 1001.3
20260507055823 6 246 0.0 3.2 0.03 0.00 0.00 95 1001.4
20260507055613 6 246 0.0 3.2 0.03 0.94 0.00 95 1001.3
20260507055318 6 187 0.0 3.2 0.03 0.00 0.00 95 1001.4
20260507055111 6 187 0.0 3.2 0.03 0.94 0.00 95 1001.3
20260507054814 6 187 0.0 1.6 0.03 0.00 0.00 95 1001.4
20260507054610 6 187 0.0 3.2 0.03 0.94 0.00 95 1001.1
20260507054355 6 187 0.0 3.2 0.03 0.94 0.00 95 1001.0
20260507054310 6 187 0.0 3.2 0.03 0.00 0.00 95 1001.0
20260507053808 6 187 0.0 3.2 0.03 0.00 0.00 95 1001.0
20260507053609 6 187 0.0 1.6 0.03 0.94 0.00 95 1001.0
20260507053306 6 187 0.0 0.0 0.03 0.00 0.00 95 1001.0
20260507053108 6 187 0.0 0.0 0.03 0.94 0.00 95 1000.9
20260507052805 6 187 0.0 0.0 0.03 0.00 0.00 95 1001.0
20260507052606 7 187 0.0 0.0 0.03 0.94 0.00 95 1001.2
20260507052301 7 187 0.0 0.0 0.03 0.00 0.00 95 1001.4
20260507052108 7 187 0.0 0.0 0.03 0.94 0.00 95 1001.3
20260507051759 7 187 0.0 0.0 0.03 0.00 0.00 95 1001.4
20260507051605 7 187 0.0 0.0 0.03 0.94 0.00 95 1001.4
20260507051255 7 187 0.0 0.0 0.03 0.00 0.00 95 1001.4
20260507051105 7 187 0.0 0.0 0.03 0.94 0.00 95 1001.4
20260507050752 7 187 0.0 1.6 0.03 0.00 0.00 95 1001.4
20260507050624 7 187 0.0 1.6 0.03 0.94 0.00 95 1001.3
20260507050249 7 187 0.0 1.6 0.00 0.00 0.00 95 1001.4
20260507050126 7 187 0.0 1.6 0.00 0.91 0.00 95 1001.2
20260507050114 7 187 0.0 1.6 0.00 0.91 0.00 95 1001.3
20260507045746 7 187 0.0 3.2 0.00 0.00 0.00 95 1001.0
20260507045242 7 188 0.0 3.2 0.00 0.00 0.00 95 1001.4
20260507045059 7 188 0.0 3.2 0.00 0.91 0.00 95 1001.2
20260507044739 7 187 0.0 3.2 0.00 0.00 0.00 95 1001.0
20260507044556 7 187 0.0 3.2 0.00 0.91 0.00 95 1001.1
20260507044236 7 186 0.0 1.6 0.00 0.00 0.00 95 1001.0
20260507044052 7 186 0.0 1.6 0.00 0.91 0.00 95 1001.1
20260507043825 7 186 0.0 1.6 0.00 0.91 0.00 95 1001.2
20260507043732 7 186 0.0 1.6 0.00 0.00 0.00 95 1001.4
20260507043229 7 186 0.0 1.6 0.00 0.00 0.00 95 1001.4
20260507043049 7 186 0.0 3.2 0.00 0.91 0.00 95 1001.1
20260507042725 7 222 0.0 3.2 0.00 0.00 0.00 95 1001.0
20260507042547 7 222 0.0 3.2 0.00 0.91 0.00 95 1001.1
20260507042327 7 222 0.0 9.7 0.00 0.91 0.00 95 1001.2
20260507042220 7 221 0.0 9.7 0.00 0.00 0.00 95 1001.0
20260507041718 7 223 0.0 9.7 0.03 0.00 0.00 95 1001.0
20260507041545 7 221 0.0 9.7 0.03 0.91 0.00 95 1001.0
20260507041214 7 221 0.0 9.7 0.03 0.00 0.00 95 1001.0
20260507041043 7 290 0.0 0.0 0.03 0.91 0.00 95 1000.9
20260507040711 7 273 0.0 0.0 0.03 0.00 0.00 95 1001.0
20260507040544 7 273 0.0 0.0 0.03 0.91 0.00 95 1000.8
20260507040207 7 273 0.0 0.0 0.03 0.00 0.00 95 1000.7
20260507040046 7 273 0.0 0.0 0.03 0.91 0.00 95 1000.6
20260507035703 7 273 0.0 0.0 0.03 0.00 0.00 95 1000.4
20260507035547 7 273 0.0 0.0 0.03 0.91 0.00 95 1000.4
20260507035159 7 273 0.0 0.0 0.03 0.00 0.00 95 1000.4
20260507035047 7 273 0.0 0.0 0.03 0.91 0.00 95 1000.3
20260507034656 7 273 0.0 0.0 0.03 0.00 0.00 95 1000.4
20260507034549 7 273 0.0 0.0 0.03 0.91 0.00 95 1000.0
20260507034154 7 273 0.0 0.0 0.03 0.00 0.00 95 1000.0
20260507034047 7 273 0.0 0.0 0.03 0.91 0.00 95 999.8
20260507033820 7 273 0.0 0.0 0.03 0.91 0.00 95 999.7
20260507033652 7 273 0.0 0.0 0.03 0.00 0.00 95 1000.0
20260507033149 7 273 0.0 0.0 0.03 0.00 0.00 95 1000.0
20260507033043 7 273 0.0 0.0 0.03 0.91 0.00 95 999.7
20260507032835 7 273 0.0 0.0 0.05 0.91 0.00 95 1000.0
20260507032831 7 272 0.0 0.0 0.03 0.91 0.00 95 999.8
20260507032647 7 273 0.0 0.0 0.05 0.00 0.00 95 1000.0
20260507032142 7 273 0.0 0.0 0.05 0.00 0.00 95 1000.4
20260507031639 7 273 0.0 0.0 0.03 0.00 0.00 95 1000.4
20260507031544 7 273 0.0 0.0 0.03 0.89 0.00 95 1000.2
20260507031136 7 273 0.0 0.0 0.03 0.00 0.00 95 1000.4
20260507031041 7 273 0.0 0.0 0.03 0.89 0.00 95 1000.3
20260507030633 7 273 0.0 0.0 0.03 0.00 0.00 95 1000.4
20260507030544 7 273 0.0 0.0 0.03 0.89 0.00 95 1000.2
20260507030131 7 273 0.0 3.2 0.03 0.00 0.00 95 1000.4
20260507030040 7 273 0.0 3.2 0.03 0.89 0.00 95 1000.4
20260507025627 7 273 0.0 3.2 0.03 0.00 0.00 95 1000.7
20260507025540 7 273 0.0 3.2 0.03 0.89 0.00 95 1000.5
20260507025124 7 273 0.0 1.6 0.03 0.00 0.00 95 1000.4
20260507025037 7 273 0.0 1.6 0.03 0.89 0.00 95 1000.4
20260507024622 7 273 0.0 1.6 0.03 0.00 0.00 95 1000.4
20260507024538 7 273 0.0 1.6 0.03 0.89 0.00 95 1000.3
20260507024119 7 273 0.0 0.0 0.03 0.00 0.00 95 1000.4
20260507024037 7 273 0.0 0.0 0.03 0.89 0.00 95 1000.3
20260507023614 7 273 0.0 0.0 0.03 0.00 0.00 95 1000.7
20260507023537 7 273 0.0 0.0 0.03 0.89 0.00 95 1000.5
20260507023112 7 273 0.0 0.0 0.03 0.00 0.00 95 1000.4
20260507023037 7 273 0.0 0.0 0.03 0.89 0.00 95 1000.4
20260507022609 7 273 0.0 0.0 0.03 0.00 0.00 95 1000.4
20260507022528 7 273 0.0 0.0 0.03 0.89 0.00 95 1000.5
20260507022104 7 273 0.0 0.0 0.00 0.00 0.00 95 1000.4
20260507022040 7 273 0.0 0.0 0.00 0.86 0.00 95 1000.4
20260507021601 7 273 0.0 0.0 0.00 0.00 0.00 94 1000.4
20260507021521 7 273 0.0 0.0 0.00 0.86 0.00 94 1000.4
20260507021057 7 273 0.0 0.0 0.00 0.00 0.00 94 1000.7
20260507021019 7 273 0.0 0.0 0.00 0.86 0.00 94 1000.5
20260507020555 7 273 0.0 0.0 0.00 0.00 0.00 94 1000.7
20260507020536 7 273 0.0 0.0 0.00 0.86 0.00 94 1000.5
20260507020532 7 273 0.0 0.0 0.00 0.86 0.00 94 1000.5
20260507020051 7 273 0.0 0.0 0.00 0.00 0.00 94 1000.7
20260507015550 7 273 0.0 0.0 0.03 0.00 0.00 94 1001.0
20260507015510 7 273 0.0 0.0 0.00 0.86 0.00 94 1000.8
20260507015258 7 273 0.0 0.0 0.03 0.86 0.00 94 1000.6
20260507015047 7 273 0.0 0.0 0.03 0.00 0.00 94 1000.7
20260507014543 7 273 0.0 0.0 0.03 0.00 0.00 94 1000.7
20260507014506 7 273 0.0 0.0 0.03 0.86 0.00 94 1000.7
20260507014039 7 273 0.0 0.0 0.03 0.00 0.00 94 1000.7
20260507014007 7 273 0.0 0.0 0.03 0.86 0.00 94 1000.7
20260507013536 7 273 0.0 0.0 0.03 0.00 0.00 94 1001.0
20260507013508 7 273 0.0 0.0 0.03 0.86 0.00 94 1000.8
20260507013250 7 273 0.0 0.0 0.03 0.86 0.00 94 1000.8
20260507013033 7 273 0.0 0.0 0.03 0.00 0.00 94 1001.0
20260507012530 7 273 0.0 0.0 0.03 0.00 0.00 94 1000.7
20260507012507 7 273 0.0 0.0 0.03 0.86 0.00 94 1000.7
20260507012251 7 273 0.0 0.0 0.03 0.86 0.00 94 1000.6
20260507012026 7 273 0.0 0.0 0.03 0.00 0.00 94 1000.7
20260507011524 7 273 0.0 0.0 0.03 0.00 0.00 94 1000.7
20260507011506 7 273 0.0 0.0 0.03 0.86 0.00 94 1000.5
20260507011020 7 273 0.0 0.0 0.05 0.00 0.00 94 1000.7
20260507011004 7 273 0.0 0.0 0.05 0.86 0.00 94 1000.5
20260507010514 7 273 0.0 0.0 0.05 0.00 0.00 94 1000.7
20260507010506 7 273 0.0 0.0 0.05 0.86 0.00 94 1000.5
20260507010251 7 273 0.0 0.0 0.05 0.86 0.00 94 1000.5
20260507010011 7 273 0.0 0.0 0.05 0.00 0.00 94 1000.7
20260507005509 7 273 0.0 0.0 0.03 0.00 0.00 94 1000.7
20260507005506 7 273 0.0 0.0 0.05 0.86 0.00 94 1000.4
20260507005016 7 273 0.0 0.0 0.03 0.84 0.00 94 1000.3
20260507005005 7 273 0.0 0.0 0.03 0.00 0.00 94 1000.4
20260507004743 7 273 0.0 0.0 0.03 0.84 0.00 94 1000.2
20260507004502 7 273 0.0 0.0 0.03 0.00 0.00 94 1000.4
20260507004013 7 273 0.0 0.0 0.03 0.84 0.00 94 1000.2
20260507004000 7 273 0.0 0.0 0.03 0.00 0.00 94 1000.4
20260507003507 8 273 0.0 0.0 0.03 0.84 0.00 94 1000.2
20260507003454 8 273 0.0 0.0 0.03 0.00 0.00 94 1000.4
20260507003236 8 273 0.0 0.0 0.03 0.84 0.00 94 999.9
20260507002944 8 273 0.0 0.0 0.03 0.00 0.00 94 1000.0
20260507002737 8 273 0.0 0.0 0.03 0.84 0.00 94 1000.0
20260507002441 8 273 0.0 0.0 0.03 0.00 0.00 94 1000.0
20260507002004 8 273 0.0 0.0 0.03 0.84 0.00 94 999.8
20260507001938 8 273 0.0 0.0 0.03 0.00 0.00 94 1000.0
20260507001503 8 273 0.0 0.0 0.03 0.84 0.00 94 999.9
20260507001434 8 273 0.0 0.0 0.03 0.00 0.00 94 1000.0
20260507001003 8 273 0.0 0.0 0.03 0.81 0.00 94 999.9
20260507000932 8 273 0.0 0.0 0.03 0.00 0.00 94 1000.0
20260507000755 8 273 0.0 0.0 0.03 0.81 0.00 94 999.9
20260507000751 8 273 0.0 0.0 0.03 0.81 0.00 94 999.9
20260507000427 8 273 0.0 0.0 0.03 0.00 0.00 94 1000.0
20260506235923 8 273 0.0 0.0 0.03 0.00 0.00 94 1000.0
20260506235500 8 273 0.0 0.0 0.03 0.81 0.00 94 999.8
20260506235420 8 273 0.0 0.0 0.03 0.00 0.00 94 1000.0
20260506234959 8 273 0.0 0.0 0.03 0.81 0.00 94 999.9
20260506234910 8 273 0.0 0.0 0.03 0.00 0.00 94 1000.0
20260506234732 8 273 0.0 0.0 0.03 0.81 0.00 94 999.8
20260506234408 8 273 0.0 0.0 0.03 0.00 0.00 94 1000.0
20260506234235 8 273 0.0 0.0 0.03 0.81 0.00 94 999.7
20260506233906 8 273 0.0 0.0 0.03 0.00 0.00 94 999.7
20260506233458 8 273 0.0 0.0 0.03 0.81 0.00 94 999.7
20260506233401 8 273 0.0 0.0 0.03 0.00 0.00 94 1000.0
20260506232955 8 273 0.0 0.0 0.05 0.81 0.00 94 999.6
20260506232858 8 273 0.0 0.0 0.05 0.00 0.00 94 999.7
20260506232458 8 273 0.0 0.0 0.05 0.81 0.00 94 999.5
20260506232354 8 273 0.0 0.0 0.05 0.00 0.00 94 999.7
20260506232224 8 273 0.0 0.0 0.05 0.81 0.00 94 999.5
20260506231850 8 273 0.0 0.0 0.05 0.00 0.00 94 999.7
20260506231450 8 273 0.0 0.0 0.05 0.81 0.00 94 999.4
20260506231348 8 273 0.0 0.0 0.05 0.00 0.00 94 999.7
20260506230943 8 273 0.0 0.0 0.03 0.79 0.00 94 999.4
20260506230845 8 273 0.0 0.0 0.03 0.00 0.00 94 999.2
20260506230731 8 273 0.0 0.0 0.03 0.79 0.00 94 999.3
20260506230341 8 273 0.0 0.0 0.03 0.00 0.00 94 999.2
20260506225941 8 273 0.0 0.0 0.03 0.79 0.00 94 999.2
20260506225837 8 273 0.0 0.0 0.03 0.00 0.00 94 999.2
20260506225441 8 273 0.0 1.6 0.03 0.79 0.00 94 999.3
20260506225335 8 273 0.0 1.6 0.03 0.00 0.00 94 999.2
20260506225217 8 273 0.0 1.6 0.03 0.79 0.00 94 999.2
20260506224827 8 273 0.0 1.6 0.03 0.00 0.00 94 999.2
20260506224438 8 273 0.0 1.6 0.03 0.79 0.00 94 999.2
20260506224324 8 273 0.0 1.6 0.03 0.00 0.00 94 999.2
20260506223937 8 273 0.0 1.6 0.03 0.79 0.00 95 999.2
20260506223820 8 273 0.0 1.6 0.03 0.00 0.00 95 999.2
20260506223437 8 273 0.0 1.6 0.05 0.79 0.00 95 999.1
20260506223315 8 273 0.0 1.6 0.05 0.00 0.00 95 999.2
20260506222940 8 273 0.0 1.6 0.03 0.76 0.00 95 999.1
20260506222813 8 273 0.0 1.6 0.03 0.00 0.00 95 999.2
20260506222437 8 273 0.0 1.6 0.03 0.76 0.00 95 999.2
20260506222308 8 273 0.0 1.6 0.03 0.00 0.00 95 999.2
20260506221931 8 273 0.0 1.6 0.03 0.76 0.00 95 999.1
20260506221807 8 273 0.0 1.6 0.03 0.00 0.00 95 998.9
20260506221431 8 273 0.0 1.6 0.03 0.76 0.00 95 998.9
20260506221304 8 273 0.0 1.6 0.03 0.00 0.00 95 999.2
20260506220931 8 273 0.0 1.6 0.03 0.76 0.00 95 999.1
20260506220801 8 273 0.0 1.6 0.03 0.00 0.00 95 999.2
20260506220431 8 273 0.0 3.2 0.05 0.76 0.00 95 999.2
20260506220256 8 273 0.0 3.2 0.05 0.00 0.00 95 999.2
20260506215930 8 271 0.0 3.2 0.05 0.76 0.00 95 999.2
20260506215753 8 271 0.0 3.2 0.05 0.00 0.00 95 999.2
20260506215430 8 275 0.0 0.0 0.05 0.76 0.00 95 999.3
20260506215249 8 275 0.0 3.2 0.05 0.00 0.00 94 999.2
20260506214931 8 275 0.0 3.2 0.05 0.76 0.00 94 999.1
20260506214745 8 275 0.0 3.2 0.05 0.00 0.00 94 999.2
20260506214432 8 275 0.0 3.2 0.05 0.76 0.00 94 999.1
20260506214242 8 274 0.0 1.6 0.05 0.00 0.00 94 998.9
20260506214206 8 274 0.0 1.6 0.05 0.76 0.00 95 998.8
20260506213741 8 274 0.0 1.6 0.03 0.00 0.00 95 998.9
20260506213431 8 275 0.0 0.0 0.03 0.74 0.00 94 999.0
20260506213237 8 275 0.0 0.0 0.03 0.00 0.00 95 999.2
20260506212925 8 275 0.0 0.0 0.03 0.74 0.00 94 999.1
20260506212735 8 273 0.0 1.6 0.03 0.00 0.00 95 999.2
20260506212421 8 277 0.0 1.6 0.03 0.74 0.00 95 999.0
20260506212230 8 304 0.0 1.6 0.03 0.00 0.00 94 999.2
20260506211921 8 306 0.0 1.6 0.03 0.74 0.00 94 999.0
20260506211720 8 306 0.0 1.6 0.05 0.00 0.00 95 998.9
20260506211421 8 306 0.0 1.6 0.05 0.74 0.00 94 998.8
20260506211216 8 350 0.0 1.6 0.05 0.00 0.00 94 998.9
20260506210921 8 350 0.0 1.6 0.05 0.74 0.00 94 998.9
20260506210713 8 350 0.0 0.0 0.05 0.00 0.00 94 998.9
20260506210421 8 350 0.0 0.0 0.03 0.71 0.00 94 998.8
20260506210210 8 298 0.0 0.0 0.03 0.00 0.00 94 998.9
20260506205921 8 305 0.0 0.0 0.03 0.71 0.00 94 998.8
20260506205707 8 305 0.0 1.6 0.03 0.00 0.00 94 998.9
20260506205424 8 305 0.0 1.6 0.03 0.71 0.00 94 998.7
20260506205202 8 300 0.0 4.8 0.03 0.00 0.00 94 998.9
20260506204920 8 311 0.0 4.8 0.05 0.71 0.00 94 998.6
20260506204700 8 279 0.0 4.8 0.05 0.00 0.00 94 998.6
20260506204421 8 272 0.0 4.8 0.05 0.71 0.00 94 998.5
20260506204156 8 296 1.6 9.7 0.05 0.00 0.00 94 998.6
20260506204148 8 296 1.6 9.7 0.05 0.71 0.00 94 998.4
20260506203655 8 283 1.6 9.7 0.05 0.00 0.00 94 998.6
20260506203420 8 264 1.6 9.7 0.05 0.71 0.00 94 998.4
20260506203152 8 280 1.6 11.3 0.05 0.00 0.00 95 998.6
20260506202920 8 300 1.6 11.3 0.05 0.71 0.00 95 998.2
20260506202650 8 311 1.6 17.7 0.05 0.00 0.00 95 998.6
20260506202420 8 290 3.2 17.7 0.05 0.71 0.00 95 998.2
20260506202145 8 294 3.2 17.7 0.05 0.00 0.00 95 998.2
20260506201918 8 288 1.6 17.7 0.05 0.71 0.00 95 998.2
20260506201643 8 208 1.6 6.4 0.03 0.00 0.00 95 998.2
20260506201420 8 202 1.6 6.4 0.03 0.69 0.00 95 998.1
20260506201145 8 313 3.2 8.0 0.03 0.71 0.00 94 998.1
20260506201139 8 186 1.6 8.0 0.03 0.00 0.00 94 998.2
20260506200636 8 331 3.2 8.0 0.03 0.00 0.00 94 998.2
20260506200420 8 292 1.6 17.7 0.05 0.71 0.00 94 998.0
20260506200133 8 309 1.6 17.7 0.05 0.00 0.00 94 998.2
20260506195913 8 93 1.6 17.7 0.05 0.71 0.00 94 998.0
20260506195629 8 219 0.0 17.7 0.05 0.00 0.00 95 998.2
20260506195411 8 15 0.0 0.0 0.05 0.71 0.00 95 998.0
20260506195125 8 284 0.0 3.2 0.05 0.00 0.00 95 997.9
20260506194909 8 293 0.0 3.2 0.03 0.69 0.00 95 997.9
20260506194623 8 223 1.6 3.2 0.03 0.00 0.00 95 997.6
20260506194409 8 117 0.0 3.2 0.03 0.69 0.00 95 997.6
20260506194119 8 143 0.0 3.2 0.05 0.00 0.00 95 997.9
20260506193907 8 143 0.0 3.2 0.05 0.71 0.00 95 997.7
20260506193617 9 144 0.0 3.2 0.05 0.00 0.00 95 997.9
20260506193406 9 252 0.0 0.0 0.05 0.71 0.00 95 997.7
20260506193114 9 320 0.0 0.0 0.05 0.00 0.00 95 997.9
20260506192908 9 5 0.0 0.0 0.05 0.71 0.00 95 997.8
20260506192611 9 351 0.0 0.0 0.05 0.00 0.00 95 997.9
20260506192408 9 350 0.0 0.0 0.05 0.74 0.00 95 997.6
20260506192141 8 317 0.0 0.0 0.05 0.76 0.00 95 997.6
20260506192107 8 317 0.0 0.0 0.05 0.00 0.00 95 997.6
20260506191604 8 174 0.0 3.2 0.05 0.00 0.00 95 997.6
20260506191406 8 220 0.0 3.2 0.05 0.76 0.00 95 997.6
20260506191059 8 271 0.0 3.2 0.05 0.00 0.00 95 997.6
20260506190907 8 271 0.0 3.2 0.05 0.79 0.00 95 997.6
20260506190557 8 277 1.6 3.2 0.03 0.00 0.00 95 997.6
20260506190405 8 284 1.6 6.4 0.03 0.79 0.00 95 997.5
20260506190054 8 284 1.6 6.4 0.03 0.00 0.00 95 997.6
20260506185906 8 285 1.6 8.0 0.03 0.79 0.00 95 997.6
20260506185551 8 285 1.6 8.0 0.05 0.00 0.00 95 997.9
20260506185405 8 291 1.6 8.0 0.05 0.79 0.00 95 997.6
20260506185047 8 327 0.0 8.0 0.05 0.00 0.00 95 997.6
20260506184905 9 267 0.0 3.2 0.05 0.79 0.00 95 997.5
20260506184636 9 295 0.0 0.0 0.05 0.84 0.00 95 997.4
20260506184545 9 5 0.0 0.0 0.05 0.00 0.00 95 997.6
20260506184137 9 284 0.0 0.0 0.03 0.86 0.00 95 997.4
20260506184042 9 284 0.0 0.0 0.03 0.00 0.00 95 997.6
20260506183641 9 274 0.0 0.0 0.05 0.89 0.00 95 997.4
20260506183538 9 274 0.0 0.0 0.05 0.00 0.00 95 997.6
20260506183035 9 274 0.0 0.0 0.05 0.00 0.00 95 997.6
20260506182903 9 274 0.0 0.0 0.05 0.89 0.00 95 997.3
20260506182640 9 273 0.0 1.6 0.05 0.89 0.00 95 997.2
20260506182532 9 273 0.0 1.6 0.05 0.00 0.00 95 997.2
20260506182029 8 277 0.0 1.6 0.05 0.00 0.00 95 997.2
20260506181908 8 262 0.0 1.6 0.05 0.89 0.00 95 997.1
20260506181527 9 300 0.0 0.0 0.05 0.00 0.00 95 997.2
20260506181409 9 292 0.0 0.0 0.05 0.89 0.00 95 997.1
20260506181024 9 292 0.0 0.0 0.05 0.00 0.00 95 997.2
20260506180910 9 292 0.0 0.0 0.05 0.89 0.00 95 997.0
20260506180642 8 271 0.0 0.0 0.05 0.89 0.00 95 997.0
20260506180520 8 271 0.0 0.0 0.05 0.00 0.00 95 997.2
20260506180016 8 279 0.0 0.0 0.05 0.00 0.00 95 997.2
20260506175910 8 279 0.0 0.0 0.05 0.89 0.00 95 997.0
20260506175513 8 309 0.0 0.0 0.05 0.00 0.00 95 996.9
20260506175406 8 309 0.0 0.0 0.05 0.86 0.00 95 996.9
20260506175009 8 263 0.0 0.0 0.05 0.00 0.00 95 996.9
20260506174904 8 263 0.0 0.0 0.05 0.86 0.00 95 996.9
20260506174508 8 300 0.0 0.0 0.05 0.00 0.00 95 996.9
20260506174410 8 300 0.0 0.0 0.05 0.86 0.00 95 996.8
20260506174003 8 262 0.0 0.0 0.05 0.00 0.00 95 996.9
20260506173902 8 261 0.0 0.0 0.05 0.86 0.00 95 996.7
20260506173502 8 290 0.0 0.0 0.05 0.00 0.00 95 996.5
20260506173403 8 288 0.0 0.0 0.05 0.84 0.00 95 996.6
20260506173142 8 298 0.0 0.0 0.05 0.84 0.00 95 996.7
20260506172958 8 298 0.0 0.0 0.05 0.00 0.00 95 996.9
20260506172455 8 296 0.0 0.0 0.05 0.00 0.00 95 996.9
20260506172402 8 296 0.0 0.0 0.05 0.84 0.00 95 996.7
20260506171946 8 286 0.0 0.0 0.05 0.00 0.00 95 996.9
20260506171900 8 286 0.0 0.0 0.05 0.84 0.00 95 996.7
20260506171444 8 295 0.0 0.0 0.05 0.00 0.00 95 996.5
20260506171400 8 295 0.0 0.0 0.05 0.84 0.00 95 996.5
20260506170941 8 291 0.0 0.0 0.05 0.00 0.00 95 996.5
20260506170900 8 291 0.0 0.0 0.05 0.84 0.00 95 996.5
20260506170437 8 306 0.0 0.0 0.05 0.00 0.00 95 996.5
20260506170400 8 313 0.0 0.0 0.05 0.84 0.00 95 996.6
20260506170135 8 274 0.0 0.0 0.08 0.84 0.00 95 996.6
20260506165930 8 274 0.0 0.0 0.08 0.00 0.00 95 996.5
20260506165428 8 275 0.0 0.0 0.05 0.00 0.00 95 996.9
20260506165400 8 275 0.0 0.0 0.05 0.81 0.00 95 996.7
20260506164918 8 297 0.0 0.0 0.05 0.00 0.00 95 996.5
20260506164902 8 297 0.0 0.0 0.05 0.81 0.00 95 996.6
20260506164414 8 297 0.0 3.2 0.05 0.00 0.00 95 996.5
20260506164401 8 297 0.0 3.2 0.05 0.81 0.00 95 996.6
20260506163908 8 295 1.6 6.4 0.08 0.00 0.00 95 996.5
20260506163900 8 295 1.6 6.4 0.08 0.81 0.00 95 996.6
20260506163401 8 303 1.6 6.4 0.05 0.79 0.00 95 996.7
20260506162858 8 280 0.0 3.2 0.05 0.79 0.00 95 996.6
20260506162856 8 280 0.0 3.2 0.05 0.00 0.00 95 996.5
20260506162356 8 280 0.0 3.2 0.05 0.79 0.00 95 996.6
20260506161858 8 280 0.0 3.2 0.05 0.79 0.00 95 996.7
20260506161846 8 280 0.0 3.2 0.05 0.00 0.00 95 996.9
20260506161352 8 280 0.0 0.0 0.05 0.79 0.00 95 996.6
20260506161344 8 280 0.0 0.0 0.05 0.00 0.00 95 996.5
20260506160848 8 280 0.0 0.0 0.08 0.79 0.00 95 996.5
20260506160842 8 280 0.0 0.0 0.08 0.00 0.00 95 996.5
20260506160625 8 293 0.0 0.0 0.08 0.79 0.00 95 996.4
20260506160338 8 293 0.0 0.0 0.08 0.00 0.00 95 996.5
20260506155848 8 293 0.0 0.0 0.05 0.76 0.00 95 996.5
20260506155836 8 285 0.0 0.0 0.05 0.00 0.00 95 996.5
20260506155348 8 294 0.0 0.0 0.08 0.76 0.00 95 996.5
20260506155333 8 294 0.0 0.0 0.08 0.00 0.00 95 996.5
20260506154843 8 294 0.0 0.0 0.08 0.76 0.00 95 996.6
20260506154339 8 296 0.0 0.0 0.08 0.76 0.00 94 996.5
20260506153840 8 336 0.0 0.0 0.05 0.74 0.00 94 996.5
20260506153445 8 338 0.0 0.0 0.05 0.00 0.00 94 996.5
20260506153339 8 338 0.0 0.0 0.05 0.74 0.00 94 996.6
20260506153124 7 277 0.0 0.0 0.08 0.74 0.00 94 996.6
20260506152942 7 277 0.0 0.0 0.08 0.00 0.00 94 996.5
20260506152439 7 275 0.0 0.0 0.08 0.00 0.00 94 996.5
20260506152336 7 275 0.0 0.0 0.08 0.74 0.00 94 996.5
20260506151938 7 275 0.0 0.0 0.08 0.00 0.00 94 996.5
20260506151834 7 275 0.0 0.0 0.08 0.74 0.00 94 996.5
20260506151434 7 275 0.0 0.0 0.10 0.00 0.00 94 996.5
20260506151334 7 275 0.0 0.0 0.10 0.74 0.00 94 996.5
20260506150932 7 275 0.0 0.0 0.08 0.00 0.00 94 996.5
20260506150837 7 275 0.0 0.0 0.08 0.71 0.00 94 996.5
20260506150428 7 275 0.0 0.0 0.08 0.00 0.00 94 996.5
20260506150334 7 281 0.0 0.0 0.08 0.71 0.00 94 996.5
20260506150109 7 308 0.0 0.0 0.08 0.71 0.00 94 996.6
20260506145925 7 257 0.0 0.0 0.08 0.00 0.00 94 996.5
20260506145421 7 277 0.0 0.0 0.05 0.00 0.00 94 996.5
20260506145330 7 277 0.0 0.0 0.05 0.69 0.00 94 996.5
20260506144919 7 303 0.0 0.0 0.08 0.00 0.00 94 996.5
20260506144822 7 298 0.0 0.0 0.08 0.69 0.00 94 996.5
20260506144415 7 298 0.0 0.0 0.08 0.00 0.00 94 996.5
20260506144318 8 298 0.0 0.0 0.08 0.69 0.00 94 996.4
20260506143914 8 298 0.0 0.0 0.08 0.00 0.00 94 996.5
20260506143812 8 273 0.0 0.0 0.08 0.69 0.00 94 996.4
20260506143410 8 248 0.0 0.0 0.10 0.00 0.00 94 996.5
20260506143312 8 248 0.0 0.0 0.10 0.69 0.00 94 996.4
20260506142909 8 199 0.0 0.0 0.08 0.00 0.00 94 996.5
20260506142813 8 199 0.0 0.0 0.08 0.66 0.00 94 996.3
20260506142407 8 198 0.0 0.0 0.08 0.00 0.00 94 996.2
20260506142310 8 198 0.0 0.0 0.08 0.66 0.00 94 995.9
20260506141904 8 197 0.0 0.0 0.08 0.00 0.00 94 996.2
20260506141808 8 197 0.0 0.0 0.08 0.66 0.00 94 995.9
20260506141402 8 197 0.0 0.0 0.05 0.00 0.00 94 996.2
20260506141318 8 197 0.0 0.0 0.05 0.64 0.00 94 995.9
20260506140900 8 148 0.0 0.0 0.08 0.00 0.00 94 996.2
20260506140805 8 149 0.0 0.0 0.08 0.64 0.00 94 996.0
20260506140357 8 290 0.0 0.0 0.08 0.00 0.00 94 996.2
20260506140306 8 290 0.0 0.0 0.08 0.64 0.00 94 995.9
20260506135854 8 287 0.0 0.0 0.08 0.00 0.00 94 996.2
20260506135806 8 287 0.0 0.0 0.08 0.64 0.00 94 996.2
20260506135549 8 289 0.0 0.0 0.10 0.64 0.00 94 996.2
20260506135351 8 289 0.0 0.0 0.10 0.00 0.00 94 996.2
20260506134847 8 254 0.0 0.0 0.08 0.00 0.00 94 996.2
20260506134805 8 254 0.0 0.0 0.08 0.61 0.00 94 996.2
20260506134343 8 254 0.0 0.0 0.08 0.00 0.00 94 996.2
20260506134317 8 254 0.0 0.0 0.08 0.61 0.00 94 996.2
20260506134313 8 254 0.0 0.0 0.08 0.61 0.00 94 996.0
20260506133840 8 254 0.0 0.0 0.08 0.00 0.00 94 996.2
20260506133337 8 250 0.0 0.0 0.08 0.00 0.00 94 996.5
20260506133305 8 250 0.0 0.0 0.08 0.58 0.00 94 996.3
20260506132833 8 246 0.0 0.0 0.08 0.00 0.00 94 996.2
20260506132804 8 246 0.0 0.0 0.08 0.58 0.00 94 996.2
20260506132331 8 245 0.0 0.0 0.08 0.00 0.00 94 996.2
20260506132306 8 245 0.0 0.0 0.08 0.58 0.00 94 996.2
20260506131829 8 217 0.0 0.0 0.10 0.00 0.00 94 996.2
20260506131810 8 217 0.0 0.0 0.10 0.58 0.00 94 996.2
20260506131325 8 213 0.0 0.0 0.10 0.00 0.00 94 996.5
20260506131306 8 213 0.0 0.0 0.10 0.58 0.00 94 996.3
20260506130822 8 213 0.0 0.0 0.08 0.00 0.00 94 996.5
20260506130804 8 213 0.0 0.0 0.08 0.56 0.00 94 996.4
20260506130535 8 302 0.0 0.0 0.08 0.56 0.00 94 996.5
20260506130318 8 302 0.0 0.0 0.08 0.00 0.00 94 996.5
20260506125816 8 167 0.0 0.0 0.05 0.00 0.00 94 996.5
20260506125758 8 167 0.0 0.0 0.05 0.53 0.00 94 996.3
20260506125314 9 162 0.0 0.0 0.08 0.00 0.00 94 996.5
20260506125257 9 162 0.0 0.0 0.08 0.53 0.00 94 996.3
20260506124813 9 272 0.0 0.0 0.08 0.00 0.00 94 996.5
20260506124754 9 272 0.0 0.0 0.08 0.53 0.00 94 996.3
20260506124309 10 348 0.0 0.0 0.08 0.00 0.00 94 996.5
20260506124254 9 348 0.0 0.0 0.08 0.53 0.00 94 996.4
20260506123807 10 300 0.0 0.0 0.10 0.00 0.00 94 996.2
20260506123756 9 300 0.0 0.0 0.10 0.53 0.00 94 996.0
20260506123306 10 184 0.0 0.0 0.08 0.00 0.00 94 996.5
20260506123254 9 183 0.0 0.0 0.08 0.51 0.00 94 996.0
20260506122802 10 200 0.0 0.0 0.08 0.00 0.00 94 996.2
20260506122753 9 200 0.0 0.0 0.08 0.51 0.00 94 995.9
20260506122259 10 190 0.0 0.0 0.08 0.00 0.00 94 995.9
20260506122251 9 190 0.0 0.0 0.08 0.51 0.00 94 995.9
20260506121757 10 269 0.0 0.0 0.05 0.00 0.00 94 995.9
20260506121749 9 269 0.0 0.0 0.05 0.48 0.00 94 996.0
20260506121254 10 269 0.0 0.0 0.05 0.00 0.00 94 995.9
20260506121246 9 269 0.0 0.0 0.05 0.48 0.00 94 995.9
20260506120751 10 269 0.0 0.0 0.08 0.00 0.00 94 995.9
20260506120745 9 269 0.0 0.0 0.08 0.48 0.00 94 995.7
20260506120527 9 269 0.0 0.0 0.08 0.48 0.00 94 995.6
20260506120249 10 269 0.0 0.0 0.08 0.00 0.00 94 995.9
20260506115746 10 269 0.0 0.0 0.08 0.00 0.00 94 995.9
20260506115744 9 269 0.0 0.0 0.08 0.48 0.00 94 995.7
20260506115244 10 269 0.0 0.0 0.08 0.00 0.00 94 995.9
20260506115242 9 269 0.0 0.0 0.08 0.46 0.00 94 995.6
20260506114741 10 269 0.0 0.0 0.08 0.00 0.00 94 995.9
20260506114244 9 269 0.0 0.0 0.08 0.46 0.00 94 995.7
20260506114239 9 269 0.0 0.0 0.08 0.00 0.00 94 995.9
20260506113739 9 269 0.0 0.0 0.05 0.43 0.00 94 995.7
20260506113737 9 269 0.0 0.0 0.05 0.00 0.00 94 995.9
20260506113237 9 269 0.0 0.0 0.05 0.43 0.00 94 995.6
20260506113235 9 269 0.0 0.0 0.05 0.00 0.00 94 995.9
20260506112733 9 269 0.0 0.0 0.05 0.43 0.00 94 995.6
20260506112730 9 269 0.0 0.0 0.05 0.00 0.00 94 995.9
20260506112249 9 269 0.0 0.0 0.08 0.43 0.00 94 995.5
20260506112245 9 269 0.0 0.0 0.05 0.43 0.00 94 995.6
20260506112228 9 269 0.0 0.0 0.08 0.00 0.00 94 995.9
20260506111726 9 269 0.0 0.0 0.08 0.00 0.00 94 995.9
20260506111509 9 269 0.0 0.0 0.08 0.43 0.00 94 995.6
20260506111224 9 269 0.0 0.0 0.08 0.00 0.00 94 995.9
20260506110724 9 269 0.0 0.0 0.05 0.41 0.00 94 995.8
20260506110721 9 269 0.0 0.0 0.05 0.00 0.00 94 995.9
20260506110218 9 269 0.0 0.0 0.05 0.00 0.00 94 995.9
20260506105718 9 269 0.0 0.0 0.08 0.41 0.00 94 995.8
20260506105714 9 269 0.0 0.0 0.08 0.00 0.00 94 995.9
20260506105217 9 269 0.0 0.0 0.05 0.38 0.00 94 995.8
20260506105211 9 269 0.0 0.0 0.05 0.00 0.00 94 995.9
20260506104716 9 269 0.0 0.0 0.05 0.38 0.00 94 995.8
20260506104710 9 269 0.0 0.0 0.05 0.00 0.00 94 995.9
20260506104214 9 269 0.0 0.0 0.05 0.38 0.00 93 995.8
20260506104207 9 269 0.0 0.0 0.05 0.00 0.00 93 995.9
20260506103713 9 269 0.0 0.0 0.05 0.38 0.00 93 995.8
20260506103704 9 269 0.0 0.0 0.05 0.00 0.00 93 995.9
20260506103209 9 269 0.0 0.0 0.05 0.38 0.00 93 995.8
20260506103201 9 269 0.0 0.0 0.05 0.00 0.00 93 995.9
20260506102707 9 269 0.0 0.0 0.08 0.38 0.00 93 995.8
20260506102659 9 269 0.0 0.0 0.08 0.00 0.00 93 995.9
20260506102450 9 269 0.0 0.0 0.08 0.38 0.00 93 995.9
20260506102156 9 269 0.0 0.0 0.08 0.00 0.00 93 996.2
20260506101712 9 269 0.0 0.0 0.05 0.36 0.00 93 995.9
20260506101653 9 269 0.0 0.0 0.05 0.00 0.00 93 996.2
20260506101208 9 269 0.0 0.0 0.05 0.36 0.00 93 995.9
20260506101149 9 269 0.0 0.0 0.05 0.00 0.00 93 996.2
20260506100707 9 269 0.0 0.0 0.08 0.36 0.00 93 996.0
20260506100648 9 269 0.0 0.0 0.08 0.00 0.00 93 996.2
20260506100208 9 269 0.0 0.0 0.08 0.38 0.00 93 996.2
20260506100145 9 269 0.0 0.0 0.08 0.00 0.00 93 996.2
20260506095946 9 269 0.0 0.0 0.05 0.41 0.00 93 996.2
20260506095644 9 269 0.0 0.0 0.05 0.00 0.00 93 996.2
20260506095449 9 269 0.0 0.0 0.05 0.46 0.00 93 996.4
20260506095140 9 269 0.0 0.0 0.05 0.00 0.00 93 996.5
20260506094710 9 269 0.0 0.0 0.05 0.46 0.00 93 996.3
20260506094638 9 269 0.0 0.0 0.05 0.00 0.00 93 996.5
20260506094209 9 269 0.0 0.0 0.05 0.46 0.00 93 996.2
20260506094135 9 269 0.0 0.0 0.05 0.00 0.00 93 996.2
20260506093707 9 269 0.0 0.0 0.05 0.46 0.00 93 996.3
20260506093634 9 269 0.0 0.0 0.05 0.00 0.00 93 996.2
20260506093210 9 269 0.0 0.0 0.05 0.46 0.00 93 995.9
20260506093130 9 269 0.0 0.0 0.05 0.00 0.00 93 996.2
20260506092705 9 269 0.0 0.0 0.03 0.43 0.00 93 996.0
20260506092628 9 268 0.0 0.0 0.03 0.00 0.00 93 996.2
20260506092210 9 268 0.0 0.0 0.03 0.43 0.00 93 996.2
20260506092125 9 268 0.0 0.0 0.03 0.00 0.00 93 996.5
20260506091712 9 268 0.0 0.0 0.03 0.43 0.00 93 996.5
20260506091623 9 268 0.0 0.0 0.03 0.00 0.00 93 996.5
20260506091209 9 312 0.0 0.0 0.03 0.43 0.00 93 996.6
20260506091120 9 312 0.0 0.0 0.03 0.00 0.00 93 996.5
20260506090705 9 311 0.0 0.0 0.00 0.41 0.00 93 996.7
20260506090619 9 298 0.0 0.0 0.00 0.00 0.00 93 996.9
20260506090206 9 265 0.0 0.0 0.00 0.41 0.00 93 996.8
20260506090114 9 265 0.0 0.0 0.00 0.00 0.00 93 996.5
20260506085702 9 265 0.0 0.0 0.00 0.41 0.00 93 996.6
20260506085611 9 265 0.0 0.0 0.00 0.00 0.00 93 996.5
20260506085200 9 265 0.0 0.0 0.00 0.41 0.00 93 996.4
20260506085108 9 265 0.0 0.0 0.00 0.00 0.00 93 996.5
20260506084658 9 265 0.0 0.0 0.00 0.41 0.00 93 996.4
20260506084604 9 265 0.0 0.0 0.00 0.00 0.00 93 996.5
20260506084433 9 265 0.0 0.0 0.00 0.41 0.00 93 996.3
20260506084101 9 265 0.0 0.0 0.00 0.00 0.00 93 996.5
20260506083656 9 265 0.0 0.0 0.00 0.41 0.00 93 996.2
20260506083558 9 265 0.0 0.0 0.00 0.00 0.00 93 996.2
20260506083154 9 265 0.0 0.0 0.00 0.41 0.00 93 996.3
20260506083055 9 265 0.0 0.0 0.00 0.00 0.00 93 996.5
20260506082658 9 265 0.0 0.0 0.00 0.41 0.00 93 996.3
20260506082552 9 265 0.0 0.0 0.00 0.00 0.00 93 996.5
20260506082437 9 265 0.0 0.0 0.00 0.41 0.00 93 996.0
20260506082048 9 265 0.0 0.0 0.00 0.00 0.00 93 996.2
20260506081658 9 265 0.0 0.0 0.00 0.41 0.00 93 996.0
20260506081546 9 265 0.0 0.0 0.00 0.00 0.00 93 996.2
20260506081200 9 265 0.0 0.0 0.00 0.41 0.00 93 996.2
20260506081043 9 265 0.0 0.0 0.00 0.00 0.00 93 996.2
20260506080652 9 265 0.0 0.0 0.00 0.41 0.00 93 996.3
20260506080541 9 265 0.0 0.0 0.00 0.00 0.00 92 996.2
20260506080154 9 265 0.0 0.0 0.00 0.41 0.00 92 996.3
20260506073524 9 265 0.0 0.0 0.00 0.00 0.00 92 996.5
20260506073148 9 265 0.0 0.0 0.00 0.41 0.00 92 996.3
20260506073021 9 265 0.0 0.0 0.00 0.00 0.00 92 996.5
20260506072643 9 265 0.0 0.0 0.00 0.41 0.00 92 996.4
20260506072519 9 265 0.0 0.0 0.00 0.00 0.00 92 996.5
20260506072143 9 265 0.0 0.0 0.00 0.41 0.00 92 996.6
20260506072016 9 265 0.0 0.0 0.00 0.00 0.00 92 996.5
20260506071643 9 265 0.0 0.0 0.00 0.41 0.00 92 996.7
20260506071514 8 265 0.0 0.0 0.00 0.00 0.00 92 996.5
20260506071144 8 265 0.0 0.0 0.00 0.41 0.00 92 996.6
20260506071011 8 265 0.0 0.0 0.00 0.00 0.00 92 996.5
20260506070643 8 265 0.0 0.0 0.00 0.41 0.00 92 996.7
20260506070508 8 265 0.0 0.0 0.00 0.00 0.00 92 996.9
20260506070143 8 265 0.0 0.0 0.00 0.41 0.00 92 996.7
20260506062445 8 265 0.0 0.0 0.00 0.00 0.00 91 997.6
20260506062141 8 265 0.0 0.0 0.00 0.41 0.00 91 997.6
20260506061942 8 265 0.0 0.0 0.00 0.00 0.00 90 997.6
20260506061644 8 265 0.0 0.0 0.00 0.41 0.00 90 997.6
20260506061438 8 265 0.0 0.0 0.00 0.00 0.00 90 997.6
20260506061144 8 265 0.0 0.0 0.00 0.41 0.00 90 997.6